User: anonymous   Login
Location: Unspecified
(0.0000°N, 0.0000°E)
Time: 05:42:30
(UTC+00:00)
Language:

CICERO 6 - Orbit

View from above orbital plane
View from above orbital plane
View from above satellite
View from above satellite

Ground track
Ground track

The orbit data is extracted from the following two-line orbital elements,

1 42793U 17036AE  18112.60501838 +.00001175 +00000-0 +54843-4 0  9998
2 42793 097.4058 173.4155 0008846 273.9154 086.1071 15.21766555046144
Epoch (UTC): 22 April 2018 14:31:13
Eccentricity: 0.0008846
inclination: 97.4058°
perigee height: 494 km
apogee height: 506 km
right ascension of ascending node: 173.4155°
argument of perigee: 273.9154°
revolutions per day: 15.21766555
mean anomaly at epoch: 86.1071°
orbit number at epoch: 4614

The dashed part of the orbit path shows where the satellite is in the earth's shadow,  

DLR